This is the latest recevied weather packets stored in our database for station/object KI5GCD-13. If no packets are shown the sender has not sent any weather packets the latest 1 day(s).
| Time | Temp. | Humidity | Pressure | Rain* | Wind** | Luminosity | Snow |
|---|---|---|---|---|---|---|---|
| 1836274661 | 17.78° C | 99% | 1013.7 hPa | 0 mm | 0 m/s | - | - |
| 1836274511 | 17.78° C | 99% | 1013.8 hPa | 0 mm | 0 m/s | - | - |
| 1836274361 | 18.33° C | 99% | 1013.7 hPa | 0 mm | 0 m/s | - | - |
| 1836274212 | 17.78° C | 98% | 1013.7 hPa | 0 mm | 0 m/s | - | - |
| 1836274061 | 18.33° C | 99% | 1013.6 hPa | 0 mm | 0 m/s | - | - |
| 1778047487 | 7.78° C | 99% | 1008.8 hPa | 0 mm | 1.79 m/s, 14° | - | - |
| 1778047187 | 7.78° C | 99% | 1009.1 hPa | 0 mm | 0.89 m/s, 21° | - | - |
| 1778046887 | 7.78° C | 99% | 1009.2 hPa | 0 mm | 0.45 m/s, 228° | - | - |
| 1778046587 | 7.78° C | 99% | 1009.5 hPa | 0 mm | 0.89 m/s, 18° | - | - |
| 1778046287 | 7.78° C | 99% | 1009.5 hPa | 0 mm | 0 m/s | - | - |
| 1778045987 | 7.78° C | 99% | 1009.5 hPa | 0 mm | 0 m/s | - | - |
| 1778045688 | 7.78° C | 99% | 1009.7 hPa | 0 mm | 1.34 m/s, 55° | - | - |
| 1778045387 | 7.78° C | 99% | 1009.9 hPa | 0 mm | 0.89 m/s, 288° | - | - |
| 1778045087 | 8.33° C | 99% | 1009.8 hPa | 0 mm | 1.34 m/s, 315° | - | - |
| 1778044787 | 7.78° C | 99% | 1009.8 hPa | 0 mm | 0 m/s | - | - |
| 1778044487 | 7.78° C | 99% | 1009.8 hPa | 0 mm | 0.45 m/s, 254° | - | - |
| 1778044187 | 8.33° C | 99% | 1009.8 hPa | 0 mm | 0 m/s | - | - |
| 1778043887 | 8.33° C | 98% | 1009.6 hPa | 0 mm | 0 m/s | - | - |
| 1778043588 | 8.33° C | 98% | 1009.5 hPa | 0 mm | 0.45 m/s, 162° | - | - |
| 1778043287 | 7.78° C | 98% | 1009.3 hPa | 0 mm | 1.34 m/s, 63° | - | - |
| 1778042987 | 8.33° C | 98% | 1009.5 hPa | 0 mm | 0 m/s | - | - |
| 1778042687 | 8.33° C | 97% | 1009.5 hPa | 0 mm | 0.89 m/s, 53° | - | - |
| 1778042387 | 8.33° C | 97% | 1009.2 hPa | 0 mm | 1.34 m/s, 77° | - | - |
| 1778042087 | 8.33° C | 96% | 1009.1 hPa | 0 mm | 0.45 m/s, 259° | - | - |
| 1778041787 | 8.33° C | 96% | 1009.2 hPa | 0 mm | 0.89 m/s, 112° | - | - |
* Rain latest hour (hover to see other rain measurements)
** Current wind speed in m/s (hover to see current wind gust speed)